Date String (YYYY-MM-DD hh:mm:ss) UTC,Instrument flags,absolute air pressure of the measurement (hPa),sample flow rate (lpm),inlet stack bypass flow (lpm),air temperature of the measurement (°C),ambient temperature measured by the external sensor (°C),aerosol sample conditioner tube jacket temperature (°C),OPC LED temperature (°C),internal box temperature (°C),relative humidity of the measurement (%),span deviation,mass concentration of particles derived from Lorenz-Mie calculation of OPC scattering (μg/m³),mass concentration of particles derived from Lorenz-Mie calculation of OPC scattering (μg/m³),mass concentration of particles derived from Lorenz-Mie calculation of OPC scattering (μg/m³)
DateTimeUTC,F1_M11,P_M11,Q1_M11,Q2_M11,T1_M11,T2_M11,T3_M11,T4_M11,T5_M11,U1_M11,ZSPAN_M11,X0_M11,X2_M11,X1_M11
2024-03-07 17:00:00,SystemResetWarning,0822.6,5.00,000.00,018.4,017.8,000.0,026.9,020.1,25.2,0001.1,0026.38,0008.53,0006.38
2024-03-07 17:01:00,SystemResetWarning,0822.6,4.99,000.00,018.4,017.8,000.0,026.9,020.1,25.3,0001.3,0026.67,0008.70,0006.48
2024-03-07 17:02:00,SystemResetWarning,0822.6,4.99,000.00,018.4,017.8,000.0,026.9,020.2,25.2,0001.4,0028.09,0008.86,0006.59
2024-03-07 17:03:00,SystemResetWarning,0822.5,5.00,000.00,018.4,017.8,000.0,026.9,020.2,25.3,0001.0,0028.99,0009.11,0006.73
2024-03-07 17:04:00,SystemResetWarning,0822.8,5.00,000.00,018.4,017.8,000.0,026.9,020.2,25.3,0000.7,0030.23,0009.19,0006.75
2024-03-07 17:05:00,SystemResetWarning,0822.8,5.00,000.00,018.4,017.8,000.0,026.9,020.2,25.3,0001.3,0030.91,0009.06,0006.71
2024-03-07 17:06:00,SystemResetWarning,0823.1,5.00,000.00,018.4,017.8,000.0,026.9,020.1,25.2,0001.6,0034.08,0009.02,0006.72
2024-03-07 17:07:00,SystemResetWarning,0823.0,5.00,000.00,018.4,017.8,000.0,026.9,020.1,25.2,0001.7,0033.97,0009.03,0006.71
2024-03-07 17:08:00,SystemResetWarning,0823.1,5.00,000.00,018.4,017.8,000.0,026.9,020.1,25.2,0001.8,0034.83,0009.04,0006.66
2024-03-07 17:09:00,SystemResetWarning,0823.1,5.00,000.00,018.4,017.8,000.0,026.9,020.1,25.3,0002.1,0034.91,0009.16,0006.70
2024-03-07 17:10:00,SystemResetWarning,0823.1,5.00,000.00,018.4,017.8,000.0,026.9,020.2,25.3,0002.3,0035.21,0009.35,0006.82
2024-03-07 17:11:00,SystemResetWarning,0823.0,5.00,000.00,018.4,017.8,000.0,026.9,020.2,25.4,0002.4,0035.72,0009.43,0006.90
2024-03-07 17:12:00,SystemResetWarning,0823.0,5.00,000.00,018.4,017.9,000.0,026.9,020.2,25.3,0002.4,0035.29,0009.36,0006.87
2024-03-07 17:13:00,SystemResetWarning,0823.0,5.00,000.00,018.4,017.9,000.0,026.9,020.2,25.3,0002.4,0033.73,0009.20,0006.73
2024-03-07 17:14:00,SystemResetWarning,0822.8,5.00,000.00,018.4,017.8,000.0,026.9,020.2,25.3,0002.5,0031.82,0008.89,0006.54
2024-03-07 17:15:00,SystemResetWarning,0823.0,5.00,000.00,018.4,017.8,000.0,026.9,020.2,25.3,0002.7,0030.91,0008.66,0006.44
2024-03-07 17:16:00,SystemResetWarning,0822.8,5.00,000.00,018.4,017.8,000.0,026.9,020.2,25.2,0002.6,0030.57,0008.71,0006.46
2024-03-07 17:17:00,SystemResetWarning,0822.8,5.00,000.00,018.4,017.8,000.0,026.9,020.2,25.2,0002.5,0027.54,0008.74,0006.44
2024-03-07 17:18:00,SystemResetWarning,0823.0,5.00,000.00,018.4,017.9,000.0,026.9,020.2,25.2,0002.4,0026.82,0008.75,0006.44
2024-03-07 17:19:00,SystemResetWarning,0823.0,5.00,000.00,018.4,017.9,000.0,026.9,020.2,25.2,0002.1,0026.21,0008.73,0006.44
2024-03-07 17:20:00,SystemResetWarning,0822.7,5.00,000.00,018.4,017.9,000.0,026.9,020.2,25.2,0001.7,0026.86,0008.60,0006.38
2024-03-07 17:21:00,SystemResetWarning,0822.6,5.00,000.00,018.4,017.9,000.0,026.9,020.2,25.2,0001.7,0027.32,0008.47,0006.28
2024-03-07 17:22:00,SystemResetWarning,0822.5,5.00,000.00,018.4,017.9,000.0,026.9,020.2,25.3,0001.3,0027.63,0008.38,0006.20
2024-03-07 17:23:00,SystemResetWarning,0822.4,5.01,000.00,018.4,017.9,000.0,026.9,020.2,25.2,0001.2,0028.99,0008.39,0006.20
2024-03-07 17:24:00,SystemResetWarning,0822.5,4.99,000.00,018.4,017.9,000.0,026.9,020.2,25.0,0001.4,0028.56,0008.45,0006.23
2024-03-07 17:25:00,SystemResetWarning,0822.5,4.98,000.00,018.4,017.9,000.0,026.9,020.2,25.2,0001.3,0028.61,0008.50,0006.28
2024-03-07 17:26:00,SystemResetWarning,0822.5,5.00,000.00,018.4,017.9,000.0,026.9,020.2,25.3,0000.9,0027.80,0008.58,0006.31
2024-03-07 17:27:00,SystemResetWarning,0822.4,5.01,000.00,018.4,017.9,000.0,026.9,020.2,25.3,0000.9,0026.99,0008.67,0006.32
2024-03-07 17:28:00,SystemResetWarning,0822.4,5.01,000.00,018.4,017.9,000.0,026.9,020.2,25.4,0000.6,0025.44,0008.60,0006.29
2024-03-07 17:29:00,SystemResetWarning,0822.7,4.99,000.00,018.4,017.9,000.0,026.9,020.2,25.5,0000.4,0025.02,0008.57,0006.28
2024-03-07 17:30:00,SystemResetWarning,0822.9,5.00,000.00,018.4,017.9,000.0,026.9,020.2,25.4,0000.5,0025.66,0008.55,0006.27
2024-03-07 17:31:00,SystemResetWarning,0822.7,5.01,000.00,018.4,017.9,000.0,026.9,020.2,25.4,0000.4,0026.66,0008.63,0006.31
2024-03-07 17:32:00,SystemResetWarning,0822.6,5.00,000.00,018.4,017.9,000.0,026.9,020.2,25.4,0000.8,0026.84,0008.74,0006.35
2024-03-07 17:33:00,SystemResetWarning,0822.6,5.01,000.00,018.4,017.9,000.0,026.9,020.2,25.4,0001.2,0026.93,0008.80,0006.39
2024-03-07 17:34:00,SystemResetWarning,0822.8,4.99,000.00,018.4,017.9,000.0,026.9,020.2,25.4,0000.9,0026.39,0008.77,0006.39
2024-03-07 17:35:00,SystemResetWarning,0822.7,5.00,000.00,018.4,017.9,000.0,026.9,020.2,25.3,0000.5,0027.32,0008.80,0006.44
2024-03-07 17:36:00,SystemResetWarning,0822.4,5.00,000.00,018.4,017.9,000.0,026.9,020.2,25.3,0000.2,0027.23,0008.88,0006.50
2024-03-07 17:37:00,SystemResetWarning,0822.6,5.00,000.00,018.4,017.9,000.0,026.9,020.2,25.3,0000.5,0027.93,0009.00,0006.57
2024-03-07 17:38:00,SystemResetWarning,0822.4,5.01,000.00,018.4,017.9,000.0,027.0,020.2,25.3,0000.7,0027.73,0009.02,0006.59
2024-03-07 17:39:00,SystemResetWarning,0822.5,5.00,000.00,018.4,017.8,000.0,027.0,020.2,25.3,0000.7,0029.41,0009.15,0006.67
2024-03-07 17:40:00,SystemResetWarning,0822.4,5.01,000.00,018.4,017.8,000.0,027.0,020.2,25.4,0000.5,0029.93,0009.30,0006.78
2024-03-07 17:41:00,SystemResetWarning,0822.4,5.01,000.00,018.4,017.9,000.0,027.0,020.2,25.4,0000.6,0029.45,0009.39,0006.85
2024-03-07 17:42:00,SystemResetWarning,0822.4,5.00,000.00,018.4,017.9,000.0,027.0,020.2,25.4,0001.0,0028.96,0009.49,0006.95
2024-03-07 17:43:00,SystemResetWarning,0822.5,4.99,000.00,018.4,017.9,000.0,027.0,020.2,25.5,0001.0,0026.71,0009.54,0007.01
2024-03-07 17:44:00,SystemResetWarning,0822.6,5.00,000.00,018.5,017.9,000.0,027.0,020.2,25.5,0000.9,0026.45,0009.57,0007.05
2024-03-07 17:45:00,SystemResetWarning,0822.6,4.99,000.00,018.5,017.9,000.0,027.0,020.2,25.5,0000.9,0026.44,0009.66,0007.07
2024-03-07 17:46:00,SystemResetWarning,0822.5,4.99,000.00,018.5,017.9,000.0,027.0,020.2,25.5,0000.6,0026.06,0009.62,0007.06
2024-03-07 17:47:00,SystemResetWarning,0822.5,5.00,000.00,018.5,017.9,000.0,027.0,020.2,25.5,0000.6,0025.37,0009.56,0007.03
2024-03-07 17:48:00,SystemResetWarning,0822.6,5.00,000.00,018.5,017.9,000.0,027.0,020.2,25.4,0000.9,0024.65,0009.36,0006.96
2024-03-07 17:49:00,SystemResetWarning,0822.5,5.00,000.00,018.5,017.9,000.0,027.0,020.2,25.3,0000.9,0024.43,0009.26,0006.93
2024-03-07 17:50:00,SystemResetWarning,0822.7,5.00,000.00,018.5,017.8,000.0,027.0,020.2,25.3,0000.8,0023.22,0009.13,0006.91
2024-03-07 17:51:00,SystemResetWarning,0822.5,5.00,000.00,018.5,017.8,000.0,027.0,020.2,25.3,0001.0,0022.09,0009.00,0006.85
2024-03-07 17:52:00,SystemResetWarning,0822.4,5.01,000.00,018.4,017.8,000.0,027.0,020.2,25.3,0001.1,0022.50,0008.89,0006.77
2024-03-07 17:53:00,SystemResetWarning,0822.6,5.01,000.00,018.4,017.7,000.0,027.0,020.2,25.3,0001.0,0021.96,0008.70,0006.69
2024-03-07 17:54:00,SystemResetWarning,0822.5,5.00,000.00,018.4,017.7,000.0,027.0,020.2,25.5,0001.0,0021.53,0008.58,0006.65
2024-03-07 17:55:00,SystemResetWarning,0822.4,4.99,000.00,018.4,017.7,000.0,027.0,020.1,25.4,0000.7,0020.62,0008.52,0006.67
2024-03-07 17:56:00,SystemResetWarning,0822.4,5.00,000.00,018.4,017.7,000.0,027.0,020.2,25.4,0000.6,0020.15,0008.49,0006.70
2024-03-07 17:57:00,SystemResetWarning,0822.4,5.00,000.00,018.4,017.7,000.0,027.0,020.2,25.4,0001.0,0019.60,0008.52,0006.73
2024-03-07 17:58:00,SystemResetWarning,0822.4,5.01,000.00,018.4,017.7,000.0,027.0,020.2,25.6,0001.5,0020.82,0008.60,0006.78
2024-03-07 17:59:00,SystemResetWarning,0822.4,5.01,000.00,018.4,017.7,000.0,027.0,020.2,25.8,0001.5,0021.96,0008.77,0006.84
